Tehachapi, CA

7:09 PM PST on November 20, 2017 (GMT -0800)
Tehachapi Municipal

Weather History for KTSP - August, 2013

Change the Weather History Date:

Thursday, August 1, 2013

  Actual Average Record
Temperature  
Mean Temperature 67 °F -  
Max Temperature 77 °F 88 °F 95 °F (2017)
Min Temperature 57 °F 60 °F 57 °F (2011)
Cooling Degree Days 2    
Growing Degree Days 17 (Base 50)    
Moisture  
Dew Point 37 °F    
Average Humidity 34    
Maximum Humidity 63    
Minimum Humidity 18    
Precipitation  
Precipitation 0.00 in - - ()
Sea Level Pressure  
Sea Level Pressure 30.10 in    
Wind  
Wind Speed 14 mph (WNW)    
Max Wind Speed 23 mph    
Max Gust Speed 30 mph    
Visibility 10 miles    
Events      
Averages and records for this station are not official NWS values.
T = Trace of Precipitation, MM = Missing Value Source: NWS Daily Summary

Daily Weather History Graph

Daily Weather History Graph

Search for Another Location

Airport or City:

Trip Planner

Search our weather history database for the weather conditions in past years. The results will help you decide how hot, cold, wet, or windy it might be!

Date:

Astronomy

Aug. 01, 2013 Rise Set
Actual Time 6:03 AM PDT 7:56 PM PDT
Civil Twilight 5:35 AM PDT 8:24 PM PDT
Nautical Twilight 5:01 AM PDT 8:57 PM PDT
Astronomical Twilight 4:25 AM PDT 9:33 PM PDT
Moon 1:43 AM PDT (8/1) 4:07 PM PDT (8/1)
Length of Visible Light 14h 48m
Length of Day
13h 53m
Waning Crescent, 22% of the Moon is Illuminated
Aug 1
Waning Crescent
Aug 6
New
Aug 14
First Quarter
Aug 20
Full
Aug 28
Last Quarter

Hourly Weather History & Observations

Time (PDT) Temp. Dew Point Humidity Pressure Visibility Wind Dir Wind Speed Gust Speed Precip Events Conditions
12:15 AM 66.2 °F 41.0 °F 40% 30.14 in 10.0 mi West 11.5 mph - N/A   Clear
12:35 AM 66.2 °F 42.8 °F 43% 30.13 in 10.0 mi West 12.7 mph 16.1 mph N/A   Clear
12:55 AM 66.2 °F 44.6 °F 46% 30.13 in 10.0 mi WSW 15.0 mph - N/A   Clear
1:15 AM 64.4 °F 44.6 °F 49% 30.13 in 10.0 mi West 11.5 mph 17.3 mph N/A   Clear
1:35 AM 64.4 °F 44.6 °F 49% 30.13 in 10.0 mi West 11.5 mph - N/A   Clear
1:55 AM 64.4 °F 44.6 °F 49% 30.12 in 10.0 mi West 11.5 mph - N/A   Clear
2:15 AM 64.4 °F 44.6 °F 49% 30.12 in 10.0 mi West 11.5 mph - N/A   Clear
2:35 AM 62.6 °F 44.6 °F 52% 30.12 in 10.0 mi West 10.4 mph - N/A   Clear
2:55 AM 62.6 °F 44.6 °F 52% 30.12 in 10.0 mi West 12.7 mph - N/A   Clear
3:15 AM 62.6 °F 44.6 °F 52% 30.12 in 10.0 mi West 12.7 mph - N/A   Clear
3:35 AM 62.6 °F 44.6 °F 52% 30.12 in 10.0 mi West 11.5 mph - N/A   Clear
3:55 AM 60.8 °F 44.6 °F 55% 30.12 in 10.0 mi West 9.2 mph - N/A   Clear
4:15 AM 59.0 °F 44.6 °F 59% 30.11 in 10.0 mi West 8.1 mph - N/A   Clear
4:35 AM 59.0 °F 44.6 °F 59% 30.11 in 10.0 mi West 6.9 mph - N/A   Clear
4:55 AM 57.2 °F 44.6 °F 63% 30.11 in 10.0 mi WNW 6.9 mph - N/A   Clear
5:15 AM 57.2 °F 44.6 °F 63% 30.11 in 9.0 mi West 6.9 mph - N/A   Clear
5:35 AM 59.0 °F 42.8 °F 55% 30.11 in 10.0 mi WNW 8.1 mph - N/A   Clear
5:55 AM 59.0 °F 44.6 °F 59% 30.11 in 9.0 mi WNW 10.4 mph 16.1 mph N/A   Clear
6:15 AM 60.8 °F 44.6 °F 55% 30.12 in 9.0 mi West 11.5 mph - N/A   Clear
6:35 AM 60.8 °F 44.6 °F 55% 30.12 in 9.0 mi West 11.5 mph - N/A   Clear
6:55 AM - - N/A% - 8.0 mi North - - N/A   Unknown
7:15 AM 62.6 °F 44.6 °F 52% 30.13 in 8.0 mi NW 9.2 mph - N/A   Clear
7:35 AM 62.6 °F 44.6 °F 52% 30.13 in 9.0 mi WNW 10.4 mph - N/A   Clear
7:55 AM 64.4 °F 44.6 °F 49% 30.13 in 9.0 mi NW 9.2 mph - N/A   Clear
8:15 AM 66.2 °F 42.8 °F 43% 30.13 in 7.0 mi WNW 6.9 mph - N/A   Clear
8:35 AM 68.0 °F 41.0 °F 37% 30.14 in 9.0 mi NW 8.1 mph - N/A   Clear
8:55 AM - - N/A% - - North - - N/A   Unknown
9:15 AM 69.8 °F 39.2 °F 33% 30.14 in 10.0 mi NW 11.5 mph 16.1 mph N/A   Unknown
9:35 AM 71.6 °F 37.4 °F 29% 30.14 in 10.0 mi NW 15.0 mph 21.9 mph N/A   Clear
9:55 AM 71.6 °F 35.6 °F 27% 30.14 in 10.0 mi NW 15.0 mph 21.9 mph N/A   Clear
10:15 AM 73.4 °F 32.0 °F 22% 30.14 in 10.0 mi NW 18.4 mph 21.9 mph N/A   Clear
10:35 AM 73.4 °F 35.6 °F 25% 30.13 in 10.0 mi NW 19.6 mph 24.2 mph N/A   Clear
10:55 AM 73.4 °F 32.0 °F 22% 30.13 in 10.0 mi NW 20.7 mph 25.3 mph N/A   Unknown
11:15 AM 75.2 °F 32.0 °F 21% 30.13 in 10.0 mi NW 18.4 mph 24.2 mph N/A   Clear
11:35 AM 75.2 °F 32.0 °F 21% 30.13 in 9.0 mi NW 21.9 mph 27.6 mph N/A   Clear
11:55 AM 77.0 °F 32.0 °F 19% 30.12 in 10.0 mi NW 17.3 mph 26.5 mph N/A   Clear
12:15 PM 77.0 °F 32.0 °F 19% 30.12 in 10.0 mi NW 17.3 mph 25.3 mph N/A   Clear
12:35 PM 77.0 °F 30.2 °F 18% 30.13 in 10.0 mi WNW 15.0 mph 25.3 mph N/A   Clear
12:55 PM 77.0 °F 32.0 °F 19% 30.12 in 10.0 mi NW 18.4 mph 26.5 mph N/A   Clear
1:15 PM 77.0 °F 32.0 °F 19% 30.12 in 10.0 mi NW 18.4 mph 26.5 mph N/A   Clear
1:35 PM 77.0 °F 35.6 °F 22% 30.12 in 10.0 mi NW 19.6 mph 27.6 mph N/A   Clear
1:55 PM 77.0 °F 35.6 °F 22% 30.12 in 10.0 mi NW 19.6 mph 27.6 mph N/A   Clear
2:15 PM 77.0 °F 35.6 °F 22% 30.11 in 10.0 mi NW 19.6 mph 27.6 mph N/A   Clear
2:35 PM 77.0 °F 35.6 °F 22% 30.10 in 10.0 mi NW 18.4 mph 27.6 mph N/A   Clear
2:55 PM 77.0 °F 33.8 °F 21% 30.10 in 10.0 mi NW 21.9 mph 29.9 mph N/A   Clear
3:15 PM 77.0 °F 33.8 °F 21% 30.08 in 10.0 mi NW 21.9 mph 28.8 mph N/A   Clear
3:35 PM 77.0 °F 33.8 °F 21% 30.09 in 10.0 mi NW 23.0 mph 27.6 mph N/A   Clear
3:55 PM 77.0 °F 33.8 °F 21% 30.08 in 10.0 mi NW 23.0 mph 29.9 mph N/A   Clear
4:15 PM 77.0 °F 32.0 °F 19% 30.07 in 10.0 mi WNW 20.7 mph 28.8 mph N/A   Clear
4:35 PM 77.0 °F 32.0 °F 19% 30.07 in 10.0 mi NW 23.0 mph 29.9 mph N/A   Clear
4:55 PM 77.0 °F 32.0 °F 19% 30.06 in 10.0 mi NW 21.9 mph 29.9 mph N/A   Clear
5:15 PM 77.0 °F 32.0 °F 19% 30.07 in 10.0 mi NW 21.9 mph 28.8 mph N/A   Clear
5:35 PM 75.2 °F 32.0 °F 21% 30.06 in 10.0 mi NW 17.3 mph 28.8 mph N/A   Clear
5:55 PM 75.2 °F 32.0 °F 21% 30.06 in 10.0 mi NW 21.9 mph 27.6 mph N/A   Clear
6:15 PM 75.2 °F 32.0 °F 21% 30.06 in 10.0 mi NW 19.6 mph 26.5 mph N/A   Clear
6:35 PM 73.4 °F 32.0 °F 22% 30.05 in 10.0 mi NW 20.7 mph 27.6 mph N/A   Clear
6:55 PM 73.4 °F 32.0 °F 22% 30.06 in 10.0 mi NW 18.4 mph 25.3 mph N/A   Clear
7:15 PM 71.6 °F 32.0 °F 23% 30.06 in 10.0 mi WNW 17.3 mph - N/A   Clear
7:35 PM 71.6 °F 32.0 °F 23% 30.06 in 10.0 mi WNW 16.1 mph - N/A   Clear
7:55 PM 69.8 °F 32.0 °F 25% 30.06 in 10.0 mi WNW 15.0 mph - N/A   Clear
8:15 PM 68.0 °F 32.0 °F 26% 30.06 in 10.0 mi WNW 13.8 mph - N/A   Clear
8:35 PM 68.0 °F 33.8 °F 28% 30.06 in 10.0 mi WNW 12.7 mph - N/A   Clear
8:55 PM 66.2 °F 33.8 °F 30% 30.07 in 10.0 mi WNW 12.7 mph - N/A   Clear
9:15 PM 66.2 °F 33.8 °F 30% 30.08 in 10.0 mi WNW 9.2 mph - N/A   Clear
9:35 PM 66.2 °F 33.8 °F 30% 30.08 in 10.0 mi WNW 12.7 mph - N/A   Clear
9:55 PM 66.2 °F 33.8 °F 30% 30.08 in 10.0 mi WNW 11.5 mph 18.4 mph N/A   Clear
10:15 PM 66.2 °F 33.8 °F 30% 30.08 in 10.0 mi West 13.8 mph 17.3 mph N/A   Clear
10:35 PM 64.4 °F 33.8 °F 32% 30.08 in 10.0 mi WNW 13.8 mph - N/A   Clear
10:55 PM 64.4 °F 33.8 °F 32% 30.08 in 10.0 mi WNW 15.0 mph - N/A   Clear
11:15 PM 64.4 °F 32.0 °F 30% 30.08 in 10.0 mi West 11.5 mph - N/A   Clear
11:55 PM 62.6 °F 32.0 °F 32% 30.08 in 10.0 mi West 10.4 mph - N/A   Clear